Hourly Data Report for July 05, 2021

FLIN FLON
MANITOBA
Current Station Operator: ECCC - MSC

54°41'00.000" N
101°41'00.000" W
303.90 m
5050919
71954
WFO

Download Data

Hourly Data (July 2021)
Hourly Data Report for July 5, 2021
TIME
LST
Temp Definition
°C
Dew Point Definition
°C
Rel Hum Definition
%
Precip. Amount Definition
mm

Wind Dir Definition
10's deg

Wind Spd Definition
km/h
Visibility Definition
km
Stn Press Definition
kPa
Hmdx Definition


Wind Chill Definition


Weather Definition


00:00 12.3 8.3 77 0.0 1 17   97.95     LegendNANA
01:00 12.1 8.5 79 0.0 3 15   97.99     LegendNANA
02:00 11.3 8.6 83 0.0 2 16   98.05     LegendNANA
03:00 11.0 7.7 80 0.0 6 16   98.06     LegendNANA
04:00 10.7 7.9 83 0.0 6 14   98.13     LegendNANA
05:00 10.3 7.4 83 0.0 5 11   98.24     LegendNANA
06:00 10.4 7.9 84 0.0 6 12   98.30     LegendNANA
07:00 10.7 7.8 82 0.0 5 13   98.33     LegendNANA
08:00 10.8 7.2 78 0.0 6 13   98.42     LegendNANA
09:00 10.4 7.5 82 0.0 5 12   98.50     LegendNANA
10:00 11.6 7.3 75 0.0 5 11   98.54     LegendNANA
11:00 13.0 7.7 70 0.0 7 16   98.59     LegendNANA
12:00 13.4 7.1 66 0.0 5 14   98.62     LegendNANA
13:00 13.8 7.4 65 0.0 6 14   98.68     LegendNANA
14:00 14.1 6.9 62 0.0 6 14   98.73     LegendNANA
15:00 13.7 7.9 68 0.0 4 14   98.77     LegendNANA
16:00 13.6 7.3 65 0.0 6 13   98.82     LegendNANA
17:00 13.9 6.5 61 0.0 4 8   98.85     LegendNANA
18:00 13.4 7.0 65 0.0 6 12   98.90     LegendNANA
19:00 12.9 6.8 66 0.0 6 9   98.91     LegendNANA
20:00 13.2 6.1 62 0.0 6 11   98.92     LegendNANA
21:00 12.4 5.5 62 0.0 6 12   98.96     LegendNANA
22:00 11.7 5.4 65 0.0 9 8   99.02     LegendNANA
23:00 10.3 5.5 72 0.0 11 6   99.03     LegendNANA

Notes on Data Quality.

Legend

  • E = Estimated
  • M = Missing
  • NA = Not Available*
  • [empty] = Indicates an unobserved value
Date modified: